Regional Weather Roundup
Issued by NWS Sioux Falls, SD

Home | Current Version | Previous Version | Text Only | Print | Product List | Glossary On
Versions: 1 2 3 4 5 6 7 8 9 10 11 12 13 14 15 16 17 18 19 20 21 22 23 24 25 26 27 28 29 30 31 32 33 34 35 36 37 38 39 40 41 42 43 44 45 46 47 48 49 50
000
ASUS43 KFSD 260610
RWRFSD

WEATHER ROUNDUP FOR SE SOUTH DAKOTA/SW MINNESOTA/NW IOWA
NATIONAL WEATHER SERVICE SIOUX FALLS SD
100 AM CDT SUN OCT 26 2014

NOTE: "FAIR" INDICATES FEW OR NO CLOUDS BELOW 12,000 FEET WITH NO
SIGNIFICANT WEATHER AND OR OBSTRUCTIONS TO VISIBILITY.


SDZ038>040-050-052>070-260700-
SOUTHEAST SOUTH DAKOTA

CITY           SKY/WX    TMP DP  RH WIND       PRES   REMARKS
CHAMBERLAIN    CLEAR     46  34  63 SE9       29.94F
6HR MIN TEMP:  45; 6HR MAX TEMP:  56;

HURON          CLEAR     44  31  60 SE8       29.97F
6HR MIN TEMP:  43; 6HR MAX TEMP:  54;

MADISON        FAIR      39  28  65 E6        30.02F
MITCHELL       CLEAR     44  35  70 SE7       29.98F
6HR MIN TEMP:  42; 6HR MAX TEMP:  58;

SIOUX FALLS    CLEAR     41  33  73 NE7       30.02F
6HR MIN TEMP:  40; 6HR MAX TEMP:  55;

WINNER         FAIR      52  33  48 SE14      29.91F
YANKTON        CLEAR     46  34  61 NE6       29.99F
$$

MNZ071-072-080-081-089-090-097-098-260700-
SOUTHWEST MINNESOTA

CITY           SKY/WX    TMP DP  RH WIND       PRES   REMARKS
FAIRMONT       CLEAR     37  27  65 CALM      30.05F
JACKSON        CLEAR     37  32  81 CALM      30.06R
LUVERNE        CLEAR     43  34  70 CALM      30.04S
MARSHALL       CLEAR     37  28  70 SW3       30.04F
6HR MIN TEMP:  37; 6HR MAX TEMP:  55;

MONTEVIDEO     CLEAR     39  30  70 SW3       30.05S
PIPESTONE      CLEAR     45  30  57 SE8       30.03F
REDWOOD FALLS  CLEAR     40  29  64 SW8       30.05S
TRACY          CLEAR     44  31  62 S7        30.05F
WINDOM         CLEAR     34  28  80 CALM      30.05S
WORTHINGTON    CLEAR     39  28  65 E3        30.06F
$$

IAZ001>003-012>014-020>022-031-032-NEZ013-014-SDZ071-260700-
NORTHWEST IOWA

CITY           SKY/WX    TMP DP  RH WIND       PRES   REMARKS
CHEROKEE       CLEAR     42  39  89 CALM      30.04S
DENISON        CLEAR     46  37  71 E5        30.02F
ESTHERVILLE    CLEAR     34  28  79 CALM      30.05F
LE MARS        CLEAR     52  34  50 E5        30.03S
ORANGE CITY    CLEAR     50  32  50 E5        30.03F
SHELDON        CLEAR     43  34  70 E7        30.03S
SIOUX CITY     CLEAR     47  37  68 E3        30.00F
6HR MIN TEMP:  43; 6HR MAX TEMP:  61;

SPENCER        CLEAR     36  33  89 NE3       30.05F
6HR MIN TEMP:  36; 6HR MAX TEMP:  53;

STORM LAKE     CLEAR     48  32  53 E9        30.04F
$$

ABBREVIATIONS USED IN REMARKS
   TC - TEMPERATURE IN CELSIUS
  WCI - WIND CHILL INDEX
   HX - HEAT INDEX
  VSB - VISIBILITY




USA.gov is the U.S. government's official web portal to all federal, state and local government web resources and services.